SCP
0 0 -0 -0 -1 -1 -1 -1 -0 -0 -0 -0 -0 -0 -0 -0 -0 -0 -0 -0 -0 -0 -0 -0 -0 -0 -0 -0 -0 -0 -0 -0 -0 -0 0 0 0 0 0 0 0 0 0
-1 0 -0 -0 -1 -1 -1 -1 -1 -0 -0 -0 -0 -0 -0 -0 -0 -0 -0 -0 -0 -0 -0 -0 -0 -0 -0 -0 -0 -0 -0 -0 -0 -0 -0 0 0 0 0 0 0 0 0
-1 -0 -0 -0 -1 -1 -1 -1 -1 -0 -0 -0 -0 -0 -0 -0 -0 -0 -0 -0 -0 -0 -0 -0 -0 -0 -0 -0 0 0 0 0 0 0 0 -0 0 0 0 0 0 0 0
-1 -1 -0 -1 -1 -1 -1 -1 -1 -0 -0 -0 -0 -0 -0 -0 -0 -0 -0 -0 -0 -0 -0 -0 -0 -0 0 0 0 0 0 0 0 0 0 0 0 0 0 0 0 0 0
-0 -0 -1 -1 -1 -1 -1 -1 -0 -0 -0 -0 -0 -0 -0 -0 -0 -0 -0 -0 -0 -0 -0 -0 0 0 0 0 0 0 0 0 0 0 0 0 -0 0 0 0 0 0 0
-0 -0 -1 -1 -1 -1 -1 -1 -1 -0 -0 -0 -0 -0 -0 -0 -0 -0 -0 -0 -0 -0 -0 0 0 0 0 0 0 0 0 0 0 0 -0 0 0 0 0 0 0 0 0
-0 0 0 -0 -0 -0 -0 -0 -0 -0 -0 -0 -0 -0 -0 -0 -0 -0 -0 -0 0 0 0 0 0 0 0 0 0 0 0 0 0 0 0 -0 0 0 0 0 0 0 0
-0 0 0 -0 -0 -0 -0 -0 -0 -0 -0 -0 -0 -0 -0 -0 -0 -0 -0 0 0 0 0 0 0 0 0 0 -0 -0 -0 -0 0 0 0 0 0 0 0 0 0 0 0
1 1 1 0 0 0 0 -0 -0 -0 -0 -0 -0 -0 -0 -0 0 0 0 0 0 0 0 0 0 0 0 0 -0 -0 -0 -0 -0 0 0 0 0 0 0 0 0 0 0
1 1 1 1 1 0 0 0 0 0 0 0 0 0 0 0 0 0 0 0 0 0 0 0 0 0 0 -0 -0 -0 -0 -0 0 0 0 0 0 0 1 1 1 1 1
1 1 1 0 1 0 0 0 0 0 0 0 0 0 0 0 0 0 0 0 0 0 0 0 0 0 0 0 -0 -0 -0 0 0 0 0 0 0 0 1 1 1 1 1
1 1 1 1 0 0 0 0 0 0 0 0 0 0 0 0 0 0 0 0 0 0 0 0 0 0 0 0 0 0 0 0 0 0 0 0 0 0 1 2 1 1 1
1 1 1 1 1 1 1 0 0 0 0 0 0 0 0 0 -0 0 0 0 0 0 0 0 0 0 0 0 0 0 0 0 0 0 0 0 0 1 1 1 1 1 1
1 1 1 1 1 1 1 1 0 0 0 0 0 0 0 0 -0 -0 0 0 0 0 0 0 0 0 0 0 0 0 0 0 0 0 0 0 0 2 1 1 1 1 1
1 1 1 1 0 1 0 0 0 0 0 0 0 0 0 -0 -0 0 0 0 0 0 0 0 0 0 0 0 0 0 0 0 0 0 0 0 1 1 1 1 1 1 1
1 1 0 0 0 0 0 0 0 0 0 0 0 0 0 0 -0 -0 0 0 0 0 0 0 0 0 0 0 0 0 0 0 0 0 0 0 1 0 1 2 1 1 0
1 1 0 1 1 1 0 0 0 0 0 0 0 0 0 -0 -0 -0 0 0 0 0 0 0 0 0 0 0 0 0 0 0 0 0 0 0 1 1 1 1 1 1 1
1 1 1 1 1 0 1 0 0 0 0 0 0 0 -0 -0 -0 -0 0 0 0 0 0 0 0 0 0 0 0 0 0 0 0 0 0 0 0 1 1 1 1 1 1
1 1 0 0 0 0 1 1 0 0 0 0 0 0 0 -0 0 0 0 0 1 1 1 0 0 0 1 0 0 0 0 0 0 0 0 0 0 0 0 1 1 1 1
0 0 0 0 0 0 1 1 -0 1 0 1 1 0 0 0 0 0 1 1 1 1 1 1 0 1 0 0 0 0 0 0 0 0 0 0 0 0 0 1 1 0 0
0 0 0 0 0 0 1 1 2 1 3 2 2 1 1 1 1 1 1 1 1 1 1 0 0 0 0 0 0 0 0 0 0 0 0 0 0 0 0 0 0 0 0
0 0 0 0 0 0 0 1 1 1 2 2 2 2 1 1 1 1 1 1 1 1 1 1 0 0 0 0 0 0 0 0 0 0 0 0 0 0 0 0 -0 0 1
0 0 0 0 0 0 0 0 2 1 1 2 1 0 1 1 1 1 1 1 1 1 1 1 0 0 0 0 0 0 0 0 0 0 0 0 0 0 0 0 0 0 1
0 0 0 0 0 0 0 0 0 0 0 0 0 1 0 1 1 1 1 1 1 1 0 0 0 0 0 0 0 0 0 0 0 0 0 0 0 0 0 0 0 0 0
0 0 0 -0 -0 -0 -0 0 0 0 0 0 1 0 1 1 1 1 1 1 0 0 0 0 0 0 0 0 0 0 0 0 0 0 0 0 0 0 0 0 0 0 0
1 1 0 0 0 -0 -0 -0 -0 0 0 0 1 1 0 0 1 1 0 0 0 0 0 0 0 0 0 0 0 0 0 0 0 0 0 0 0 0 0 0 0 0 0
Wind_Speed_500mb
42 53 50 51 54 52 49 47 42 38 32 28 28 29 31 32 32 33 36 39 41 38 35 31 28 25 23 19 16 14 15 16 17 17 19 18 14 12 13 14 16 20 19
49 58 54 53 54 53 49 46 41 38 33 29 28 28 31 32 35 38 39 40 39 36 32 29 27 26 22 19 18 18 19 19 20 22 21 18 14 9 7 4 10 13 14
50 64 59 56 54 53 51 47 43 39 34 29 27 27 29 33 37 39 40 39 36 33 30 27 25 23 20 18 18 20 21 22 24 29 24 23 19 13 7 5 3 6 7
64 69 64 60 57 54 52 47 43 39 33 28 24 24 27 32 34 35 35 34 31 28 26 25 21 21 20 20 21 24 29 31 27 19 14 14 15 15 12 6 3 2 3
73 70 66 63 59 54 51 48 44 40 36 30 26 24 26 30 32 31 30 27 25 24 23 22 20 19 20 22 26 32 35 29 22 12 9 10 8 10 10 10 6 6 7
73 74 64 62 59 54 51 49 47 42 37 32 27 26 28 31 32 28 24 22 23 22 21 20 19 17 19 23 28 34 32 25 18 13 10 5 2 4 11 9 9 8 9
80 75 66 61 58 53 50 49 47 42 37 31 24 23 25 29 29 25 22 20 19 19 17 16 15 17 20 24 30 32 30 23 18 13 11 8 6 9 13 14 13 11 12
74 73 64 61 56 52 48 47 46 43 37 32 26 24 24 27 28 23 19 17 15 14 13 13 13 16 20 24 29 28 30 23 19 16 9 9 5 9 21 20 19 18 19
66 69 65 62 56 51 49 47 45 41 36 31 27 25 25 27 28 23 18 15 14 13 11 10 11 12 16 20 25 24 24 25 23 17 11 13 15 21 25 25 24 23 27
70 71 67 64 60 55 52 47 44 40 35 32 29 29 29 29 28 23 18 14 12 12 11 9 9 10 12 15 19 20 19 19 20 24 21 19 25 27 31 36 36 31 29
74 70 69 68 62 56 52 49 44 40 36 34 33 31 31 30 29 25 19 14 11 9 8 7 6 6 7 10 13 15 18 15 14 16 23 31 30 34 37 40 46 40 35
74 72 72 69 64 60 57 53 48 44 40 36 33 33 32 30 27 23 17 11 6 3 4 6 7 7 9 10 13 17 22 20 18 20 22 19 27 36 38 42 48 40 37
67 69 74 70 65 61 57 54 50 44 38 34 30 28 27 26 25 22 19 13 7 9 9 9 7 9 9 7 8 15 24 27 24 23 21 25 27 32 36 31 41 36 36
63 62 62 68 63 61 56 51 45 41 36 32 29 27 26 25 23 20 14 13 11 8 15 13 5 10 3 5 10 15 19 20 28 31 33 35 29 28 22 28 32 34 39
64 64 61 70 65 61 54 49 45 41 35 30 28 25 24 24 22 15 14 11 3 2 1 7 9 11 13 15 16 20 23 26 31 35 39 40 41 36 34 34 36 36 37
77 74 68 71 65 54 46 44 40 35 32 30 27 23 22 22 19 15 9 8 6 7 5 7 10 14 18 21 25 28 28 31 36 44 44 42 40 32 26 30 48 50 46
89 78 73 71 67 53 38 26 25 25 31 30 30 26 27 28 21 14 8 2 9 9 14 18 22 30 31 37 46 43 44 49 55 47 47 46 38 33 49 49 43 48 51
87 83 81 59 64 54 32 38 41 34 32 26 24 27 22 22 24 18 18 14 18 19 24 27 27 30 34 44 40 38 43 48 48 52 53 51 52 48 54 52 54 58 57
80 87 72 64 67 58 68 68 59 48 42 40 32 31 26 25 28 21 22 27 28 29 24 25 29 41 47 46 46 48 52 59 62 49 49 54 55 51 45 45 38 35 32
62 60 64 62 63 48 84 70 47 51 40 42 38 34 27 35 31 26 29 28 32 34 41 41 38 37 42 46 49 55 58 52 36 33 27 28 40 36 33 27 24 29 28
62 77 67 70 63 75 80 66 58 62 45 45 41 41 35 40 39 33 26 30 34 40 46 47 46 47 48 50 56 52 46 36 32 35 30 26 18 11 17 25 32 39 40
53 66 73 67 62 63 65 73 59 60 49 45 42 46 38 35 42 36 34 36 38 40 42 42 41 44 43 44 34 28 22 44 25 18 27 22 24 26 34 35 40 46 52
56 59 67 67 47 56 78 69 75 68 50 43 46 54 42 34 34 34 34 36 32 29 32 36 37 33 30 32 23 19 15 16 46 34 29 26 23 20 28 36 36 45 49
45 54 63 71 58 53 64 80 81 89 70 69 65 46 40 25 29 30 29 30 29 27 25 25 25 26 27 21 24 33 32 36 26 38 42 27 40 43 34 35 36 36 33
49 64 62 70 55 48 52 70 88 76 75 62 53 48 31 28 29 28 28 26 23 23 23 23 21 19 20 27 30 36 36 33 40 43 59 59 53 50 48 50 52 55 55
63 76 67 65 58 51 53 57 65 73 69 57 45 37 33 30 28 23 24 23 23 23 20 15 16 19 23 28 31 33 33 33 33 28 39 57 62 69 65 62 65 66 67
Wind_Direction_500mb
179 172 169 169 167 165 163 162 158 154 150 145 144 145 149 152 153 152 148 147 146 144 141 140 139 139 138 140 138 132 127 124 122 109 101 98 104 119 134 139 123 120 120
188 176 172 173 171 168 166 164 161 159 156 150 145 144 148 150 149 146 147 148 148 146 143 142 141 139 134 133 134 137 136 133 126 114 106 109 108 102 105 139 128 122 127
199 179 175 176 173 171 169 166 165 164 161 154 148 144 146 149 149 148 149 152 152 151 146 141 143 148 139 137 143 145 140 134 128 126 105 103 83 72 66 70 113 125 137
193 180 177 176 176 174 170 168 167 166 163 156 148 144 147 151 152 150 151 154 156 157 156 155 152 150 149 145 150 146 136 126 123 129 132 107 87 63 44 16 320 250 199
184 180 177 176 176 175 172 169 168 168 166 162 156 149 148 151 150 151 152 154 156 159 167 168 163 157 153 150 150 144 138 133 128 130 129 141 95 77 26 359 306 273 254
182 179 178 176 175 175 174 170 169 170 170 167 162 155 153 155 154 154 152 150 150 154 161 166 167 162 158 154 153 153 148 147 145 155 168 127 90 306 329 321 298 281 268
177 176 177 177 175 174 175 172 169 171 172 171 167 160 158 157 157 154 154 154 155 158 166 173 174 171 167 164 163 167 163 163 166 182 211 183 18 4 302 302 284 280 275
180 175 177 177 175 174 175 174 171 172 173 173 171 165 161 161 160 161 158 158 161 164 170 173 176 177 175 173 175 180 188 185 192 197 251 256 235 285 314 294 282 280 278
181 179 179 177 176 175 176 175 173 173 175 176 173 167 166 166 167 169 164 162 165 165 169 174 177 181 185 186 187 190 199 207 200 216 246 283 254 262 278 292 297 304 301
184 186 180 179 178 177 176 176 174 174 178 177 177 172 170 172 174 173 173 170 169 168 171 182 182 190 201 203 205 209 214 222 235 245 258 259 268 267 266 265 281 289 298
183 184 184 182 181 179 177 176 177 178 180 181 180 177 177 177 179 179 179 176 172 180 188 205 217 224 234 233 230 234 244 247 254 261 270 263 260 259 273 267 265 273 283
183 186 187 185 183 182 181 180 181 183 184 185 184 181 179 180 182 182 186 181 176 229 259 261 265 278 287 290 285 277 273 264 257 279 295 290 261 266 274 265 259 265 281
183 183 188 188 187 185 185 184 185 188 188 188 188 186 184 184 187 187 189 186 136 81 17 277 310 336 294 296 315 320 287 272 265 273 287 303 292 289 282 270 251 270 288
184 185 187 191 188 190 191 191 192 191 193 193 190 189 189 185 181 179 174 148 126 75 49 64 41 355 351 295 303 306 321 294 292 291 288 295 291 282 284 255 260 272 284
189 187 188 188 193 195 194 197 198 199 200 200 199 194 197 193 190 167 151 165 151 301 345 338 327 307 298 292 285 277 286 284 288 291 292 288 284 286 277 266 268 272 283
192 190 182 183 194 194 198 207 208 209 215 214 213 208 206 207 201 184 156 224 240 264 289 305 298 295 292 300 296 283 273 273 282 285 287 284 278 282 273 274 286 285 289
193 186 174 182 187 185 191 197 210 219 224 233 228 214 211 209 208 192 164 237 266 283 285 283 282 287 293 293 293 285 281 283 281 285 280 278 269 264 274 291 280 281 288
190 182 173 180 177 173 178 224 220 217 203 194 193 190 181 178 196 203 196 224 250 258 272 281 280 278 275 281 280 278 276 276 273 277 272 275 276 275 278 281 278 281 287
190 187 187 192 201 215 212 224 217 215 199 199 200 196 204 207 199 213 212 219 238 246 261 253 259 269 274 285 288 289 292 293 289 293 286 281 279 276 281 284 273 275 275
180 192 190 193 208 206 199 205 214 216 206 214 208 202 204 214 210 213 217 233 248 258 257 255 261 269 281 289 293 293 291 294 291 295 293 302 282 265 280 280 265 263 271
175 186 188 188 189 198 200 217 205 207 211 220 223 225 215 211 209 217 234 245 256 260 255 259 266 271 281 292 295 296 298 297 298 294 283 323 321 281 275 286 279 279 272
182 187 188 191 188 205 209 207 208 207 211 208 220 225 219 212 214 222 231 256 266 261 263 270 280 285 292 294 304 305 316 312 302 285 317 294 303 306 291 268 267 277 269
187 190 191 186 203 205 204 214 210 202 211 201 224 222 207 202 219 229 248 256 256 270 277 281 288 292 295 302 295 293 305 280 305 304 307 282 293 276 273 277 287 281 272
198 197 189 194 201 199 213 214 205 203 213 215 205 208 214 209 229 233 235 250 270 281 285 288 287 295 295 296 292 294 284 283 291 302 301 289 287 288 283 284 290 297 299
219 188 186 194 199 213 216 212 203 204 214 212 212 213 215 216 204 223 245 258 273 285 293 287 290 292 291 286 288 287 289 290 281 273 286 295 289 284 287 286 284 283 285
197 181 184 184 197 204 209 217 210 217 212 213 207 205 198 201 211 226 242 256 271 273 277 276 273 274 278 280 282 286 287 292 291 297 296 295 297 292 289 286 284 284 283
Wind_Speed_850mb
42 53 50 51 54 52 49 47 42 38 32 28 28 29 31 32 32 33 36 39 41 38 35 31 28 25 23 19 16 14 15 16 17 17 19 18 14 12 13 14 16 20 19
49 58 54 53 54 53 49 46 41 38 33 29 28 28 31 32 35 38 39 40 39 36 32 29 27 26 22 19 18 18 19 19 20 22 21 18 14 9 7 4 10 13 14
50 64 59 56 54 53 51 47 43 39 34 29 27 27 29 33 37 39 40 39 36 33 30 27 25 23 20 18 18 20 21 22 24 29 24 23 19 13 7 5 3 6 7
64 69 64 60 57 54 52 47 43 39 33 28 24 24 27 32 34 35 35 34 31 28 26 25 21 21 20 20 21 24 29 31 27 19 14 14 15 15 12 6 3 2 3
73 70 66 63 59 54 51 48 44 40 36 30 26 24 26 30 32 31 30 27 25 24 23 22 20 19 20 22 26 32 35 29 22 12 9 10 8 10 10 10 6 6 7
73 74 64 62 59 54 51 49 47 42 37 32 27 26 28 31 32 28 24 22 23 22 21 20 19 17 19 23 28 34 32 25 18 13 10 5 2 4 11 9 9 8 9
80 75 66 61 58 53 50 49 47 42 37 31 24 23 25 29 29 25 22 20 19 19 17 16 15 17 20 24 30 32 30 23 18 13 11 8 6 9 13 14 13 11 12
74 73 64 61 56 52 48 47 46 43 37 32 26 24 24 27 28 23 19 17 15 14 13 13 13 16 20 24 29 28 30 23 19 16 9 9 5 9 21 20 19 18 19
66 69 65 62 56 51 49 47 45 41 36 31 27 25 25 27 28 23 18 15 14 13 11 10 11 12 16 20 25 24 24 25 23 17 11 13 15 21 25 25 24 23 27
70 71 67 64 60 55 52 47 44 40 35 32 29 29 29 29 28 23 18 14 12 12 11 9 9 10 12 15 19 20 19 19 20 24 21 19 25 27 31 36 36 31 29
74 70 69 68 62 56 52 49 44 40 36 34 33 31 31 30 29 25 19 14 11 9 8 7 6 6 7 10 13 15 18 15 14 16 23 31 30 34 37 40 46 40 35
74 72 72 69 64 60 57 53 48 44 40 36 33 33 32 30 27 23 17 11 6 3 4 6 7 7 9 10 13 17 22 20 18 20 22 19 27 36 38 42 48 40 37
67 69 74 70 65 61 57 54 50 44 38 34 30 28 27 26 25 22 19 13 7 9 9 9 7 9 9 7 8 15 24 27 24 23 21 25 27 32 36 31 41 36 36
63 62 62 68 63 61 56 51 45 41 36 32 29 27 26 25 23 20 14 13 11 8 15 13 5 10 3 5 10 15 19 20 28 31 33 35 29 28 22 28 32 34 39
64 64 61 70 65 61 54 49 45 41 35 30 28 25 24 24 22 15 14 11 3 2 1 7 9 11 13 15 16 20 23 26 31 35 39 40 41 36 34 34 36 36 37
77 74 68 71 65 54 46 44 40 35 32 30 27 23 22 22 19 15 9 8 6 7 5 7 10 14 18 21 25 28 28 31 36 44 44 42 40 32 26 30 48 50 46
89 78 73 71 67 53 38 26 25 25 31 30 30 26 27 28 21 14 8 2 9 9 14 18 22 30 31 37 46 43 44 49 55 47 47 46 38 33 49 49 43 48 51
87 83 81 59 64 54 32 38 41 34 32 26 24 27 22 22 24 18 18 14 18 19 24 27 27 30 34 44 40 38 43 48 48 52 53 51 52 48 54 52 54 58 57
80 87 72 64 67 58 68 68 59 48 42 40 32 31 26 25 28 21 22 27 28 29 24 25 29 41 47 46 46 48 52 59 62 49 49 54 55 51 45 45 38 35 32
62 60 64 62 63 48 84 70 47 51 40 42 38 34 27 35 31 26 29 28 32 34 41 41 38 37 42 46 49 55 58 52 36 33 27 28 40 36 33 27 24 29 28
62 77 67 70 63 75 80 66 58 62 45 45 41 41 35 40 39 33 26 30 34 40 46 47 46 47 48 50 56 52 46 36 32 35 30 26 18 11 17 25 32 39 40
53 66 73 67 62 63 65 73 59 60 49 45 42 46 38 35 42 36 34 36 38 40 42 42 41 44 43 44 34 28 22 44 25 18 27 22 24 26 34 35 40 46 52
56 59 67 67 47 56 78 69 75 68 50 43 46 54 42 34 34 34 34 36 32 29 32 36 37 33 30 32 23 19 15 16 46 34 29 26 23 20 28 36 36 45 49
45 54 63 71 58 53 64 80 81 89 70 69 65 46 40 25 29 30 29 30 29 27 25 25 25 26 27 21 24 33 32 36 26 38 42 27 40 43 34 35 36 36 33
49 64 62 70 55 48 52 70 88 76 75 62 53 48 31 28 29 28 28 26 23 23 23 23 21 19 20 27 30 36 36 33 40 43 59 59 53 50 48 50 52 55 55
63 76 67 65 58 51 53 57 65 73 69 57 45 37 33 30 28 23 24 23 23 23 20 15 16 19 23 28 31 33 33 33 33 28 39 57 62 69 65 62 65 66 67
Wind_Direction_850mb
179 172 169 169 167 165 163 162 158 154 150 145 144 145 149 152 153 152 148 147 146 144 141 140 139 139 138 140 138 132 127 124 122 109 101 98 104 119 134 139 123 120 120
188 176 172 173 171 168 166 164 161 159 156 150 145 144 148 150 149 146 147 148 148 146 143 142 141 139 134 133 134 137 136 133 126 114 106 109 108 102 105 139 128 122 127
199 179 175 176 173 171 169 166 165 164 161 154 148 144 146 149 149 148 149 152 152 151 146 141 143 148 139 137 143 145 140 134 128 126 105 103 83 72 66 70 113 125 137
193 180 177 176 176 174 170 168 167 166 163 156 148 144 147 151 152 150 151 154 156 157 156 155 152 150 149 145 150 146 136 126 123 129 132 107 87 63 44 16 320 250 199
184 180 177 176 176 175 172 169 168 168 166 162 156 149 148 151 150 151 152 154 156 159 167 168 163 157 153 150 150 144 138 133 128 130 129 141 95 77 26 359 306 273 254
182 179 178 176 175 175 174 170 169 170 170 167 162 155 153 155 154 154 152 150 150 154 161 166 167 162 158 154 153 153 148 147 145 155 168 127 90 306 329 321 298 281 268
177 176 177 177 175 174 175 172 169 171 172 171 167 160 158 157 157 154 154 154 155 158 166 173 174 171 167 164 163 167 163 163 166 182 211 183 18 4 302 302 284 280 275
180 175 177 177 175 174 175 174 171 172 173 173 171 165 161 161 160 161 158 158 161 164 170 173 176 177 175 173 175 180 188 185 192 197 251 256 235 285 314 294 282 280 278
181 179 179 177 176 175 176 175 173 173 175 176 173 167 166 166 167 169 164 162 165 165 169 174 177 181 185 186 187 190 199 207 200 216 246 283 254 262 278 292 297 304 301
184 186 180 179 178 177 176 176 174 174 178 177 177 172 170 172 174 173 173 170 169 168 171 182 182 190 201 203 205 209 214 222 235 245 258 259 268 267 266 265 281 289 298
183 184 184 182 181 179 177 176 177 178 180 181 180 177 177 177 179 179 179 176 172 180 188 205 217 224 234 233 230 234 244 247 254 261 270 263 260 259 273 267 265 273 283
183 186 187 185 183 182 181 180 181 183 184 185 184 181 179 180 182 182 186 181 176 229 259 261 265 278 287 290 285 277 273 264 257 279 295 290 261 266 274 265 259 265 281
183 183 188 188 187 185 185 184 185 188 188 188 188 186 184 184 187 187 189 186 136 81 17 277 310 336 294 296 315 320 287 272 265 273 287 303 292 289 282 270 251 270 288
184 185 187 191 188 190 191 191 192 191 193 193 190 189 189 185 181 179 174 148 126 75 49 64 41 355 351 295 303 306 321 294 292 291 288 295 291 282 284 255 260 272 284
189 187 188 188 193 195 194 197 198 199 200 200 199 194 197 193 190 167 151 165 151 301 345 338 327 307 298 292 285 277 286 284 288 291 292 288 284 286 277 266 268 272 283
192 190 182 183 194 194 198 207 208 209 215 214 213 208 206 207 201 184 156 224 240 264 289 305 298 295 292 300 296 283 273 273 282 285 287 284 278 282 273 274 286 285 289
193 186 174 182 187 185 191 197 210 219 224 233 228 214 211 209 208 192 164 237 266 283 285 283 282 287 293 293 293 285 281 283 281 285 280 278 269 264 274 291 280 281 288
190 182 173 180 177 173 178 224 220 217 203 194 193 190 181 178 196 203 196 224 250 258 272 281 280 278 275 281 280 278 276 276 273 277 272 275 276 275 278 281 278 281 287
190 187 187 192 201 215 212 224 217 215 199 199 200 196 204 207 199 213 212 219 238 246 261 253 259 269 274 285 288 289 292 293 289 293 286 281 279 276 281 284 273 275 275
180 192 190 193 208 206 199 205 214 216 206 214 208 202 204 214 210 213 217 233 248 258 257 255 261 269 281 289 293 293 291 294 291 295 293 302 282 265 280 280 265 263 271
175 186 188 188 189 198 200 217 205 207 211 220 223 225 215 211 209 217 234 245 256 260 255 259 266 271 281 292 295 296 298 297 298 294 283 323 321 281 275 286 279 279 272
182 187 188 191 188 205 209 207 208 207 211 208 220 225 219 212 214 222 231 256 266 261 263 270 280 285 292 294 304 305 316 312 302 285 317 294 303 306 291 268 267 277 269
187 190 191 186 203 205 204 214 210 202 211 201 224 222 207 202 219 229 248 256 256 270 277 281 288 292 295 302 295 293 305 280 305 304 307 282 293 276 273 277 287 281 272
198 197 189 194 201 199 213 214 205 203 213 215 205 208 214 209 229 233 235 250 270 281 285 288 287 295 295 296 292 294 284 283 291 302 301 289 287 288 283 284 290 297 299
219 188 186 194 199 213 216 212 203 204 214 212 212 213 215 216 204 223 245 258 273 285 293 287 290 292 291 286 288 287 289 290 281 273 286 295 289 284 287 286 284 283 285
197 181 184 184 197 204 209 217 210 217 212 213 207 205 198 201 211 226 242 256 271 273 277 276 273 274 278 280 282 286 287 292 291 297 296 295 297 292 289 286 284 284 283